Left ArrowRight Arrow

46.40834, -105.84056

Hourly Observations for March 9, 2019

Temp ( °F °C ) Dew Point ( °F °C ) Humidity (%) Winds ( mph kmh ) Pressure ( in mb ) Visibility ( mi km ) Precip ( " mm )
12:05 am 00:05 Cloudy with Light Snow 26 -3.3 26 -3.3 100 100 N 7 11 29.88 1012 1 2 0.00 0.03
12:38 am 00:38 Cloudy with Light Snow 27 -2.8 26 -3.3 96 96 N 9 15 29.85 1011 1 2 0.02 0.51
12:53 am 00:53 Cloudy with Light Snow 27 -2.8 27 -2.8 100 100 NNW 7 11 29.82 1010 1 2 0.02 0.51
1:53 am 01:53 Cloudy with Light Snow 27 -2.8 27 -2.8 100 100 NW 10 17 29.84 1010 2 2 0.02 0.51
2:21 am 02:21 Cloudy with Light Snow 27 -2.8 26 -3.3 96 96 N 9 15 29.89 1012 3 5 0.00 0.03
2:37 am 02:37 Cloudy with Light Snow 27 -2.8 26 -3.3 96 96 NW 8 13 29.88 1012 8 13 0.00 0.03
2:53 am 02:53 Cloudy with Light Snow 26 -3.3 25 -3.9 96 96 NNW 9 15 29.83 1010 8 13 0.00 0.03
3:53 am 03:53 Cloudy 25 -3.9 24 -4.4 96 96 NW 7 11 29.85 1011 10 16 0.00 0.03
4:53 am 04:53 Cloudy 21 -6.1 20 -6.7 96 96 W 10 17 29.88 1012 10 16 0.00 0.00
5:53 am 05:53 Cloudy 21 -6.1 20 -6.7 96 96 WNW 8 13 29.90 1013 10 16 0.00 0.00
6:53 am 06:53 Mostly Cloudy 18 -7.8 17 -8.3 96 96 WNW 8 13 29.91 1013 10 16 0.00 0.00
7:53 am 07:53 Mostly Sunny 19 -7.2 17 -8.3 92 92 NW 7 11 29.93 1014 10 16 0.00 0.00
8:53 am 08:53 Mostly Cloudy 21 -6.1 17 -8.3 85 85 WNW 6 9 29.95 1014 10 16 0.00 0.00
9:53 am 09:53 Mostly Sunny 23 -5 17 -8.3 78 78 NW 9 15 29.97 1015 10 16 0.00 0.00
10:53 am 10:53 Mostly Cloudy 23 -5 17 -8.3 78 78 WNW 8 13 29.99 1016 10 16 0.00 0.00
11:53 am 11:53 Mostly Cloudy 24 -4.4 16 -8.9 71 71 NW 7 11 29.99 1016 10 16 0.00 0.00
12:53 pm 12:53 Sunny 24 -4.4 16 -8.9 71 71 WNW 10 17 30.00 1016 10 16 0.00 0.00
1:53 pm 13:53 Sunny 24 -4.4 17 -8.3 75 75 NNW 10 17 29.99 1016 10 16 0.00 0.00
2:53 pm 14:53 Sunny 24 -4.4 16 -8.9 71 71 NW 9 15 30.01 1016 10 16 0.00 0.00
3:53 pm 15:53 Sunny 24 -4.4 16 -8.9 71 71 NW 6 9 30.01 1016 10 16 0.00 0.00
4:53 pm 16:53 Sunny 26 -3.3 16 -8.9 66 66 NNE 8 13 30.02 1017 10 16 0.00 0.00
5:53 pm 17:53 Sunny 22 -5.6 15 -9.4 75 75 Calm 30.04 1017 10 16 0.00 0.00
6:53 pm 18:53 Clear 19 -7.2 15 -9.4 84 84 Calm 30.06 1018 10 16 0.00 0.00
7:53 pm 19:53 Clear 16 -8.9 13 -10.6 88 88 WNW 5 7 30.08 1019 10 16 0.00 0.00
8:53 pm 20:53 Clear 11 -11.7 8 -13.3 88 88 W 3 6 30.09 1019 10 16 0.00 0.00
9:53 pm 21:53 Clear 10 -12.2 7 -13.9 87 87 VRB 5 7 30.10 1019 10 16 0.00 0.00
10:53 pm 22:53 Clear 8 -13.3 7 -13.9 95 95 S 5 7 30.11 1020 10 16 0.00 0.00
11:53 pm 23:53 Clear 6 -14.4 5 -15 95 95 SSE 8 13 30.10 1019 10 16 0.00 0.00

Powered by Vaisala Xweather